Location: Gazon
(48.1318°N, 1.2708°W)
Time: 22:29:35
(UTC+00:00)

BREEZE-M DEB (TANK) - Pass Details

Date: 18 September 2020
Orbit: 315 x 16294 km, 49.4° (Epoch: 24 October)

Event Time Altitude Azimuth Distance (km) Brightness Sun altitude
Rises 20:33:01 0° 283° (WNW) 2,499 6.9 -23.4°
Reaches altitude 10° 20:34:28 10° 274° (W) 1,906 5.9 -23.6°
Maximum altitude 20:38:08 40° 202° (SSW) 1,455 4.3 -24.1°
Enters shadow 20:40:30 32° 164° (SSE) 2,170 4.9 -24.4°
